Location: Unspecified
(0.0000°N, 0.0000°E)
Time: 22:39:22
(UTC+00:00)

deb Delta 104 - Visible Passes

Search period start: 05 June 2026 00:00
Search period end: 15 June 2026 00:00
Orbit: 1255 x 1763 km, 102.5° (Epoch: 4 June)

Date Brightness Start Highest point End Pass type
(mag) Time Alt. Az. Time Alt. Az. Time Alt. Az.
5 Jun ? 18:35:24 10° SSE 18:44:10 71° ENE 18:52:02 10° N visible
5 Jun ? 20:33:15 10° SW 20:37:18 14° WSW 20:41:13 10° W visible
6 Jun ? 05:18:31 10° ENE 05:23:25 16° ESE 05:28:32 10° SE visible
6 Jun ? 19:45:43 10° S 19:53:25 35° WSW 20:00:31 10° NW visible
7 Jun ? 19:00:36 10° SSE 19:09:22 77° WSW 19:17:13 10° NNW visible
8 Jun ? 18:16:51 10° SSE 18:25:06 50° ENE 18:32:32 10° N visible
8 Jun ? 20:12:22 10° SSW 20:18:27 21° WSW 20:24:10 10° WNW visible
9 Jun ? 05:03:55 10° ESE 05:04:39 10° ESE 05:05:23 10° ESE visible
9 Jun ? 19:26:13 10° S 19:34:29 49° WSW 19:41:59 10° NW visible
10 Jun ? 18:41:42 10° SSE 18:50:18 78° ENE 18:58:03 10° NNW visible
10 Jun ? 20:40:45 10° SW 20:43:25 12° WSW 20:46:01 10° W visible
11 Jun ? 05:23:54 10° ENE 05:29:36 19° ESE 05:35:34 10° SSE visible
11 Jun ? 19:52:19 10° SSW 19:59:32 31° WSW 20:06:14 10° NW visible
12 Jun ? 19:06:58 10° S 19:15:28 70° WSW 19:23:08 10° NNW visible
13 Jun ? 18:23:02 10° SSE 18:31:13 55° ENE 18:38:37 10° N visible
13 Jun ? 20:19:12 10° SSW 20:24:32 18° WSW 20:29:37 10° WNW visible
14 Jun ? 05:07:34 10° E 05:10:49 12° ESE 05:14:07 10° SE visible
14 Jun ? 19:32:40 10° S 19:40:34 44° WSW 19:47:47 10° NW visible
